User: anonymous   Login
Location: ??????
(30.5519°N, 47.7720°E)
Time: 08:26:19
(UTC+00:00)
Language:

ERS-2 - Orbit

View from above orbital plane
View from above orbital plane
View from above satellite
View from above satellite

Ground track
Ground track

The orbit data is extracted from the following two-line orbital elements,

1 23560U 95021A   21101.81767429  .00000983  00000-0  44582-4 0  9999
2 23560  98.5544 302.6827 0002485 219.6403 140.4650 15.23811038387544
Epoch (UTC): 11 April 2021 19:37:27
Eccentricity: 0.0002485
inclination: 98.5544°
perigee height: 492 km
apogee height: 496 km
right ascension of ascending node: 302.6827°
argument of perigee: 219.6403°
revolutions per day: 15.23811038
mean anomaly at epoch: 140.4650°
orbit number at epoch: 38754

The dashed part of the orbit path shows where the satellite is in the earth's shadow,  

DLR